Hourly Weather Rusiec

Today, 21 April, Wednesday

Time Temperature Precipitation Wind Pressure Humidity
00:00 +9°C° 0.1 mm 1 mps 749 mmHg 86%
01:00 +7°C° 0 mm 2 mps 749 mmHg 88%
02:00 +7°C° 0 mm 2 mps 749 mmHg 89%
03:00 +7°C° 0 mm 2 mps 749 mmHg 90%
04:00 +6°C° 0 mm 2 mps 748 mmHg 91%
05:00 +7°C° 0 mm 2 mps 749 mmHg 86%
06:00 +8°C° 0 mm 2 mps 749 mmHg 81%
07:00 +9°C° 0 mm 2 mps 749 mmHg 76%
08:00 +10°C° 0 mm 3 mps 749 mmHg 68%
09:00 +12°C° 0 mm 3 mps 749 mmHg 60%
10:00 +13°C° 0 mm 3 mps 749 mmHg 52%
11:00 +14°C° 0 mm 3 mps 748 mmHg 48%
12:00 +15°C° 0 mm 4 mps 748 mmHg 44%
13:00 +17°C° 0 mm 4 mps 748 mmHg 40%
14:00 +15°C° 0 mm 4 mps 748 mmHg 43%
15:00 +15°C° 0 mm 4 mps 747 mmHg 45%
16:00 +15°C° 0 mm 5 mps 747 mmHg 48%
17:00 +13°C° 0 mm 4 mps 747 mmHg 56%
18:00 +11°C° 0 mm 4 mps 747 mmHg 65%
19:00 +8°C° 0 mm 4 mps 748 mmHg 74%
20:00 +7°C° 0.1 mm 4 mps 748 mmHg 75%
21:00 +7°C° 0.1 mm 4 mps 748 mmHg 77%
22:00 +6°C° 0.1 mm 4 mps 749 mmHg 78%
23:00 +5°C° 0 mm 4 mps 749 mmHg 76%

Tomorrow, 22 April, Thursday

Time Temperature Precipitation Wind Pressure Humidity
00:00 +3°C° 0 mm 5 mps 749 mmHg 74%
01:00 +2°C° 0 mm 5 mps 749 mmHg 72%
02:00 +1°C° 0 mm 5 mps 749 mmHg 74%
03:00 0°C° 0 mm 5 mps 749 mmHg 76%
04:00 -1°C° 0 mm 6 mps 749 mmHg 78%
05:00 -1°C° 0 mm 6 mps 749 mmHg 76%
06:00 0°C° 0 mm 7 mps 750 mmHg 73%
07:00 0°C° 0 mm 7 mps 750 mmHg 70%
08:00 +2°C° 0 mm 8 mps 750 mmHg 65%
09:00 +4°C° 0 mm 8 mps 750 mmHg 60%
10:00 +5°C° 0 mm 8 mps 750 mmHg 55%
11:00 +6°C° 0.2 mm 8 mps 750 mmHg 52%
12:00 +7°C° 0.2 mm 9 mps 750 mmHg 49%
13:00 +7°C° 0.2 mm 9 mps 750 mmHg 47%
14:00 +7°C° 0.1 mm 9 mps 750 mmHg 46%
15:00 +7°C° 0.1 mm 9 mps 751 mmHg 44%
16:00 +6°C° 0.1 mm 9 mps 751 mmHg 43%
17:00 +5°C° 0 mm 8 mps 751 mmHg 45%
18:00 +4°C° 0 mm 7 mps 752 mmHg 46%
19:00 +3°C° 0 mm 6 mps 752 mmHg 48%
20:00 +2°C° 0 mm 6 mps 752 mmHg 51%
21:00 +2°C° 0 mm 5 mps 753 mmHg 54%
22:00 +1°C° 0 mm 5 mps 753 mmHg 57%
23:00 +1°C° 0 mm 5 mps 753 mmHg 60%

Day after tomorrow, 23 April, Friday

Time Temperature Precipitation Wind Pressure Humidity
00:00 0°C° 0 mm 4 mps 753 mmHg 63%
01:00 0°C° 0 mm 4 mps 753 mmHg 66%
02:00 -1°C° 0 mm 4 mps 753 mmHg 68%
03:00 -1°C° 0 mm 4 mps 753 mmHg 71%
04:00 -1°C° 0 mm 4 mps 753 mmHg 73%
05:00 0°C° 0 mm 5 mps 754 mmHg 73%
06:00 +1°C° 0 mm 5 mps 754 mmHg 74%
07:00 +1°C° 0 mm 5 mps 754 mmHg 75%
08:00 +2°C° 0.1 mm 6 mps 754 mmHg 72%
09:00 +4°C° 0.1 mm 7 mps 754 mmHg 69%
10:00 +5°C° 0.1 mm 8 mps 754 mmHg 67%
11:00 +5°C° 0.3 mm 7 mps 754 mmHg 61%
12:00 +5°C° 0.3 mm 7 mps 754 mmHg 56%
13:00 +6°C° 0.3 mm 7 mps 754 mmHg 51%
14:00 +6°C° 0 mm 7 mps 755 mmHg 47%
15:00 +6°C° 0 mm 7 mps 755 mmHg 44%
16:00 +6°C° 0 mm 8 mps 755 mmHg 40%
17:00 +5°C° 0 mm 6 mps 756 mmHg 44%
18:00 +5°C° 0 mm 5 mps 756 mmHg 47%
19:00 +3°C° 0 mm 4 mps 757 mmHg 51%
20:00 +1°C° 0 mm 4 mps 757 mmHg 55%
21:00 +1°C° 0 mm 3 mps 757 mmHg 59%
22:00 +1°C° 0 mm 3 mps 757 mmHg 63%
23:00 0°C° 0 mm 3 mps 757 mmHg 68%

24 April, Saturday

Time Temperature Precipitation Wind Pressure Humidity
00:00 0°C° 0 mm 3 mps 757 mmHg 72%
01:00 -1°C° 0 mm 3 mps 757 mmHg 77%
02:00 -1°C° 0 mm 3 mps 757 mmHg 77%
03:00 -1°C° 0 mm 3 mps 757 mmHg 78%
04:00 -2°C° 0 mm 3 mps 757 mmHg 78%
05:00 0°C° 0 mm 3 mps 757 mmHg 72%
06:00 +1°C° 0 mm 3 mps 757 mmHg 66%
07:00 +3°C° 0 mm 4 mps 757 mmHg 60%
08:00 +4°C° 0 mm 3 mps 757 mmHg 53%
09:00 +7°C° 0 mm 3 mps 757 mmHg 47%
10:00 +9°C° 0 mm 3 mps 757 mmHg 40%
11:00 +8°C° 0 mm 4 mps 757 mmHg 39%
12:00 +10°C° 0 mm 4 mps 756 mmHg 38%
13:00 +9°C° 0 mm 5 mps 756 mmHg 37%
14:00 +9°C° 0.1 mm 5 mps 756 mmHg 40%
15:00 +9°C° 0.1 mm 5 mps 756 mmHg 44%
16:00 +8°C° 0.1 mm 6 mps 756 mmHg 48%
17:00 +7°C° 0 mm 5 mps 756 mmHg 50%
18:00 +5°C° 0 mm 5 mps 756 mmHg 53%
19:00 +4°C° 0 mm 4 mps 757 mmHg 55%
20:00 +3°C° 0 mm 4 mps 757 mmHg 57%
21:00 +1°C° 0 mm 3 mps 758 mmHg 58%
22:00 0°C° 0 mm 3 mps 758 mmHg 60%
23:00 0°C° 0 mm 3 mps 758 mmHg 62%

25 April, Sunday

Time Temperature Precipitation Wind Pressure Humidity
00:00 -1°C° 0 mm 2 mps 758 mmHg 65%
01:00 -1°C° 0 mm 2 mps 759 mmHg 67%
02:00 -2°C° 0 mm 2 mps 759 mmHg 70%
03:00 -2°C° 0 mm 2 mps 759 mmHg 74%
04:00 -2°C° 0 mm 2 mps 759 mmHg 77%
05:00 0°C° 0 mm 3 mps 759 mmHg 71%
06:00 +1°C° 0 mm 3 mps 759 mmHg 66%
07:00 +3°C° 0 mm 3 mps 759 mmHg 60%
08:00 +4°C° 0 mm 4 mps 759 mmHg 52%
09:00 +6°C° 0 mm 5 mps 759 mmHg 44%
10:00 +8°C° 0 mm 5 mps 758 mmHg 36%
11:00 +8°C° 0 mm 6 mps 758 mmHg 35%
12:00 +9°C° 0 mm 6 mps 758 mmHg 34%
13:00 +9°C° 0 mm 6 mps 757 mmHg 34%
14:00 +9°C° 0 mm 6 mps 757 mmHg 35%
15:00 +9°C° 0 mm 6 mps 757 mmHg 36%
16:00 +9°C° 0 mm 6 mps 757 mmHg 37%
17:00 +7°C° 0 mm 4 mps 757 mmHg 44%
18:00 +5°C° 0 mm 3 mps 756 mmHg 50%
19:00 +5°C° 0 mm 2 mps 756 mmHg 57%
20:00 +4°C° 0 mm 2 mps 756 mmHg 58%
21:00 +4°C° 0 mm 1 mps 756 mmHg 59%
22:00 +3°C° 0 mm 1 mps 755 mmHg 59%
23:00 +3°C° 0 mm 1 mps 755 mmHg 60%

26 April, Monday

Time Temperature Precipitation Wind Pressure Humidity
00:00 +2°C° 0 mm 2 mps 755 mmHg 61%
01:00 0°C° 0 mm 3 mps 754 mmHg 63%
02:00 +1°C° 0 mm 2 mps 754 mmHg 65%
03:00 +1°C° 0 mm 2 mps 754 mmHg 67%
04:00 +1°C° 0 mm 2 mps 753 mmHg 69%
05:00 +2°C° 0 mm 2 mps 753 mmHg 67%
06:00 +4°C° 0 mm 2 mps 753 mmHg 64%
07:00 +5°C° 0 mm 2 mps 753 mmHg 62%
08:00 +5°C° 0 mm 3 mps 753 mmHg 57%
09:00 +8°C° 0 mm 3 mps 753 mmHg 53%
10:00 +9°C° 0 mm 3 mps 753 mmHg 48%
11:00 +10°C° 0 mm 3 mps 752 mmHg 44%
12:00 +11°C° 0 mm 3 mps 752 mmHg 41%
13:00 +11°C° 0 mm 3 mps 752 mmHg 37%
14:00 +11°C° 0 mm 3 mps 752 mmHg 36%
15:00 +11°C° 0 mm 3 mps 752 mmHg 36%
16:00 +12°C° 0 mm 2 mps 752 mmHg 35%
17:00 +10°C° 0 mm 2 mps 751 mmHg 41%
18:00 +8°C° 0 mm 2 mps 751 mmHg 47%
19:00 +6°C° 0 mm 2 mps 751 mmHg 53%
20:00 +4°C° 0 mm 3 mps 751 mmHg 60%
21:00 +3°C° 0 mm 3 mps 752 mmHg 67%
22:00 +1°C° 0 mm 4 mps 752 mmHg 74%
23:00 0°C° 0 mm 4 mps 752 mmHg 75%
Show more